Location: Alvis C Story Elementary School
(33.0968°N, 96.6364°W)
Time: 05:13:27
(UTC+00:00)

H-2A R/B (2) - Pass Details

Date: 01 July 2022
Orbit: 426 x 34397 km, 28.9° (Epoch: 11 August)

Event Time Altitude Azimuth Distance (km) Brightness Sun altitude
Rises 06:02:42 0° 124° (SE) 35,289 10.1 -33.4°
Reaches altitude 10° 07:26:02 10° 126° (SE) 38,652 10.4 -32.3°
Maximum altitude 11:41:03 38° 127° (SE) 20,596 9.6 2.8°
Drops below altitude 10° 12:40:35 10° 87° (E) 9,889 9.6 14.4°
Sets 12:45:57 0° 80° (E) 9,361 9.3 15.4°
